Location: Foligno
(42.9600°N, 12.7050°E)
Time: 06:06:04
(UTC+01:00)

ISS - Pass Details

Date: 19 January 2021
Orbit: 418 x 421 km, 51.6° (Epoch: 23 January)

Event Time Altitude Azimuth Distance (km) Brightness Sun altitude
Rises 17:49:47 0° 200° (SSW) 2,353 0.7 -8.3°
Reaches altitude 10° 17:52:15 10° 182° (S) 1,495 -0.7 -8.7°
Maximum altitude 17:54:44 19° 134° (SE) 1,056 -2.0 -9.2°
Enters shadow 17:56:48 12° 91° (E) 1,376 -1.7 -9.5°
